Time,TemperatureF,DewpointF,PressureIn,WindDirection,WindDirectionDegrees,WindSpeedMPH,WindSpeedGustMPH,Humidity,HourlyPrecipIn,Conditions,Clouds,dailyrainin,SoftwareType,DateUTC
2013-01-11 00:02:00,23.0,20.0,-100.00,SE,131,6.0,22.0,87,0.00,,,0.05,,2013-01-11 08:02:00,
2013-01-11 00:32:00,21.0,17.0,-100.00,WNW,295,5.0,22.0,86,0.00,,,0.05,,2013-01-11 08:32:00,
2013-01-11 00:42:00,21.0,17.0,-100.00,WNW,295,5.0,22.0,86,0.00,,,0.05,,2013-01-11 08:42:00,
2013-01-11 00:52:00,21.0,17.0,-100.00,WNW,295,5.0,22.0,86,0.00,,,0.05,,2013-01-11 08:52:00,
2013-01-11 01:02:00,21.0,17.0,-100.00,WNW,295,5.0,22.0,86,0.00,,,0.05,,2013-01-11 09:02:00,
2013-01-11 01:32:00,20.0,16.0,-100.00,North,351,5.0,22.0,85,0.00,,,0.05,,2013-01-11 09:32:00,
2013-01-11 01:42:00,20.0,16.0,-100.00,North,351,5.0,22.0,85,0.00,,,0.05,,2013-01-11 09:42:00,
2013-01-11 01:52:00,20.0,16.0,-100.00,North,351,5.0,22.0,85,0.00,,,0.05,,2013-01-11 09:52:00,
2013-01-11 02:02:00,20.0,16.0,-100.00,North,351,5.0,22.0,85,0.00,,,0.05,,2013-01-11 10:02:00,
2013-01-11 02:32:00,20.0,16.0,-100.00,West,270,6.0,19.0,86,0.00,,,0.05,,2013-01-11 10:32:00,
2013-01-11 02:42:00,20.0,16.0,-100.00,West,270,6.0,19.0,86,0.00,,,0.05,,2013-01-11 10:42:00,
2013-01-11 02:52:00,20.0,16.0,-100.00,West,270,6.0,19.0,86,0.00,,,0.05,,2013-01-11 10:52:00,
2013-01-11 03:02:00,20.0,16.0,-100.00,West,270,6.0,19.0,86,0.00,,,0.05,,2013-01-11 11:02:00,
2013-01-11 03:22:00,19.0,16.0,-100.00,WSW,250,2.0,17.0,86,0.00,,,-99.99,,2013-01-11 11:22:00,
2013-01-11 03:33:00,19.0,16.0,-100.00,WSW,250,2.0,17.0,86,0.00,,,-99.99,,2013-01-11 11:33:00,
2013-01-11 03:43:00,19.0,16.0,-100.00,WSW,250,2.0,17.0,86,0.00,,,-99.99,,2013-01-11 11:43:00,
2013-01-11 03:53:00,19.0,16.0,-100.00,WSW,250,2.0,17.0,86,0.00,,,-99.99,,2013-01-11 11:53:00,
2013-01-11 04:02:00,19.0,16.0,-100.00,WSW,250,2.0,17.0,86,0.00,,,-99.99,,2013-01-11 12:02:00,
2013-01-11 04:23:00,20.0,17.0,-100.00,West,259,1.0,14.0,88,0.00,,,-99.99,,2013-01-11 12:23:00,
2013-01-11 04:33:00,20.0,17.0,-100.00,West,259,1.0,14.0,88,0.00,,,-99.99,,2013-01-11 12:33:00,
2013-01-11 04:43:00,20.0,17.0,-100.00,West,259,1.0,14.0,88,0.00,,,-99.99,,2013-01-11 12:43:00,
2013-01-11 04:53:00,20.0,17.0,-100.00,West,259,1.0,14.0,88,0.00,,,-99.99,,2013-01-11 12:53:00,
2013-01-11 05:02:00,20.0,17.0,-100.00,West,259,1.0,14.0,88,0.00,,,-99.99,,2013-01-11 13:02:00,
2013-01-11 05:22:00,18.0,15.0,-100.00,SSW,196,0.0,7.0,87,0.00,,,-99.99,,2013-01-11 13:22:00,
2013-01-11 05:33:00,18.0,15.0,-100.00,SSW,196,0.0,7.0,87,0.00,,,-99.99,,2013-01-11 13:33:00,
2013-01-11 05:43:00,18.0,15.0,-100.00,SSW,196,0.0,7.0,87,0.00,,,-99.99,,2013-01-11 13:43:00,
2013-01-11 05:52:00,18.0,15.0,-100.00,SSW,196,0.0,7.0,87,0.00,,,-99.99,,2013-01-11 13:52:00,
2013-01-11 06:02:00,18.0,15.0,-100.00,SSW,196,0.0,7.0,87,0.00,,,-99.99,,2013-01-11 14:02:00,
2013-01-11 06:03:00,16.0,13.0,-100.00,SW,219,0.0,6.0,87,0.00,,,0.05,,2013-01-11 14:03:00,
2013-01-11 06:33:00,16.0,13.0,-100.00,SW,219,0.0,6.0,87,0.00,,,0.05,,2013-01-11 14:33:00,
2013-01-11 06:43:00,16.0,13.0,-100.00,SW,219,0.0,6.0,87,0.00,,,0.05,,2013-01-11 14:43:00,
2013-01-11 06:53:00,16.0,13.0,-100.00,SW,219,0.0,6.0,87,0.00,,,0.05,,2013-01-11 14:53:00,
2013-01-11 07:23:00,14.0,10.0,-100.00,ENE,58,0.0,5.0,85,0.00,,,0.05,,2013-01-11 15:23:00,
2013-01-11 07:33:00,14.0,10.0,-100.00,ENE,58,0.0,5.0,85,0.00,,,0.05,,2013-01-11 15:33:00,
2013-01-11 07:43:00,14.0,10.0,-100.00,ENE,58,0.0,5.0,85,0.00,,,0.05,,2013-01-11 15:43:00,
2013-01-11 07:53:00,14.0,10.0,-100.00,ENE,58,0.0,5.0,85,0.00,,,0.05,,2013-01-11 15:53:00,
2013-01-11 08:02:00,14.0,10.0,-100.00,ENE,58,0.0,5.0,85,0.00,,,0.05,,2013-01-11 16:02:00,
2013-01-11 08:33:00,21.0,16.0,-100.00,WSW,241,1.0,4.0,82,0.00,,,0.05,,2013-01-11 16:33:00,
2013-01-11 08:43:00,21.0,16.0,-100.00,WSW,241,1.0,4.0,82,0.00,,,0.05,,2013-01-11 16:43:00,
2013-01-11 08:53:00,21.0,16.0,-100.00,WSW,241,1.0,4.0,82,0.00,,,0.05,,2013-01-11 16:53:00,
2013-01-11 09:02:00,21.0,16.0,-100.00,WSW,241,1.0,4.0,82,0.00,,,0.05,,2013-01-11 17:02:00,
2013-01-11 09:33:00,27.0,18.0,-100.00,North,358,2.0,7.0,69,0.00,,,0.05,,2013-01-11 17:33:00,
2013-01-11 09:43:00,27.0,18.0,-100.00,North,358,2.0,7.0,69,0.00,,,0.05,,2013-01-11 17:43:00,
2013-01-11 09:53:00,27.0,18.0,-100.00,North,358,2.0,7.0,69,0.00,,,0.05,,2013-01-11 17:53:00,
2013-01-11 10:02:00,27.0,18.0,-100.00,North,358,2.0,7.0,69,0.00,,,0.05,,2013-01-11 18:02:00,
2013-01-11 10:33:00,25.0,16.0,-100.00,ESE,110,3.0,10.0,67,0.00,,,0.04,,2013-01-11 18:33:00,
2013-01-11 10:43:00,25.0,16.0,-100.00,ESE,110,3.0,10.0,67,0.00,,,0.04,,2013-01-11 18:43:00,
2013-01-11 10:53:00,25.0,16.0,-100.00,ESE,110,3.0,10.0,67,0.00,,,0.04,,2013-01-11 18:53:00,
2013-01-11 11:02:00,25.0,16.0,-100.00,ESE,110,3.0,10.0,67,0.00,,,0.04,,2013-01-11 19:02:00,
2013-01-11 11:23:00,34.0,14.0,-100.00,NNW,340,4.0,10.0,43,0.00,,,0.02,,2013-01-11 19:23:00,
2013-01-11 11:33:00,34.0,14.0,-100.00,NNW,340,4.0,10.0,43,0.00,,,0.02,,2013-01-11 19:33:00,
2013-01-11 11:43:00,34.0,14.0,-100.00,NNW,340,4.0,10.0,43,0.00,,,0.02,,2013-01-11 19:43:00,
2013-01-11 11:53:00,34.0,14.0,-100.00,NNW,340,4.0,10.0,43,0.00,,,0.02,,2013-01-11 19:53:00,
2013-01-11 12:02:00,34.0,14.0,-100.00,NNW,340,4.0,10.0,43,0.00,,,0.02,,2013-01-11 20:02:00,
2013-01-11 12:33:00,36.0,12.0,-100.00,NNW,344,5.0,16.0,36,0.01,,,0.02,,2013-01-11 20:33:00,
2013-01-11 13:02:00,36.0,12.0,-100.00,NNW,344,5.0,16.0,36,0.01,,,0.02,,2013-01-11 21:02:00,
2013-01-11 13:33:00,36.0,16.0,-100.00,East,92,4.0,13.0,43,0.03,,,0.05,,2013-01-11 21:33:00,
2013-01-11 14:23:00,34.0,14.0,-100.00,SW,219,3.0,13.0,44,-99.99,,,0.07,,2013-01-11 22:23:00,
2013-01-11 14:33:00,34.0,14.0,-100.00,SW,219,3.0,13.0,44,-99.99,,,0.07,,2013-01-11 22:33:00,
2013-01-11 14:42:00,34.0,14.0,-100.00,SW,219,3.0,13.0,44,-99.99,,,0.07,,2013-01-11 22:42:00,
2013-01-11 14:53:00,34.0,14.0,-100.00,SW,219,3.0,13.0,44,-99.99,,,0.07,,2013-01-11 22:53:00,
2013-01-11 15:02:00,34.0,14.0,-100.00,SW,219,3.0,13.0,44,-99.99,,,0.07,,2013-01-11 23:02:00,
2013-01-11 15:23:00,31.0,13.0,-100.00,WSW,245,3.0,13.0,47,0.00,,,0.07,,2013-01-11 23:23:00,
2013-01-11 15:33:00,31.0,13.0,-100.00,WSW,245,3.0,13.0,47,0.00,,,0.07,,2013-01-11 23:33:00,
2013-01-11 15:43:00,31.0,13.0,-100.00,WSW,245,3.0,13.0,47,0.00,,,0.07,,2013-01-11 23:43:00,
2013-01-11 15:53:00,31.0,13.0,-100.00,WSW,245,3.0,13.0,47,0.00,,,0.07,,2013-01-11 23:53:00,
2013-01-11 16:02:00,31.0,13.0,-100.00,WSW,245,3.0,13.0,47,0.00,,,0.07,,2013-01-12 00:02:00,
2013-01-11 16:33:00,29.0,13.0,-100.00,WNW,288,2.0,12.0,50,0.00,,,0.07,,2013-01-12 00:33:00,
2013-01-11 16:43:00,29.0,13.0,-100.00,WNW,288,2.0,12.0,50,0.00,,,0.07,,2013-01-12 00:43:00,
2013-01-11 16:53:00,29.0,13.0,-100.00,WNW,288,2.0,12.0,50,0.00,,,0.07,,2013-01-12 00:53:00,
2013-01-11 17:02:00,29.0,13.0,-100.00,WNW,288,2.0,12.0,50,0.00,,,0.07,,2013-01-12 01:02:00,
2013-01-11 17:33:00,24.0,16.0,-100.00,East,96,0.0,10.0,71,0.00,,,0.07,,2013-01-12 01:33:00,
2013-01-11 17:43:00,24.0,16.0,-100.00,East,96,0.0,10.0,71,0.00,,,0.07,,2013-01-12 01:43:00,
2013-01-11 17:52:00,24.0,16.0,-100.00,East,96,0.0,10.0,71,0.00,,,0.07,,2013-01-12 01:52:00,
2013-01-11 18:02:00,24.0,16.0,-100.00,East,96,0.0,10.0,71,0.00,,,0.07,,2013-01-12 02:02:00,
2013-01-11 18:33:00,22.0,17.0,-100.00,SW,220,2.0,9.0,80,0.00,,,0.07,,2013-01-12 02:33:00,
2013-01-11 18:43:00,22.0,17.0,-100.00,SW,220,2.0,9.0,80,0.00,,,0.07,,2013-01-12 02:43:00,
2013-01-11 18:53:00,22.0,17.0,-100.00,SW,220,2.0,9.0,80,0.00,,,0.07,,2013-01-12 02:53:00,
2013-01-11 19:02:00,22.0,17.0,-100.00,SW,220,2.0,9.0,80,0.00,,,0.07,,2013-01-12 03:02:00,
2013-01-11 19:33:00,21.0,17.0,-100.00,NE,35,1.0,8.0,86,0.00,,,0.07,,2013-01-12 03:33:00,
2013-01-11 19:43:00,21.0,17.0,-100.00,NE,35,1.0,8.0,86,0.00,,,0.07,,2013-01-12 03:43:00,
2013-01-11 19:53:00,21.0,17.0,-100.00,NE,35,1.0,8.0,86,0.00,,,0.07,,2013-01-12 03:53:00,
2013-01-11 20:02:00,21.0,17.0,-100.00,NE,35,1.0,8.0,86,0.00,,,0.07,,2013-01-12 04:02:00,
2013-01-11 20:03:00,21.0,17.0,-100.00,SW,220,2.0,11.0,85,0.00,,,0.07,,2013-01-12 04:03:00,
2013-01-11 20:22:00,21.0,17.0,-100.00,SW,220,2.0,11.0,85,0.00,,,0.07,,2013-01-12 04:22:00,
2013-01-11 20:32:00,21.0,17.0,-100.00,SW,220,2.0,11.0,85,0.00,,,0.07,,2013-01-12 04:32:00,
2013-01-11 20:42:00,21.0,17.0,-100.00,SW,220,2.0,11.0,85,0.00,,,0.07,,2013-01-12 04:42:00,
2013-01-11 20:52:00,21.0,17.0,-100.00,SW,220,2.0,11.0,85,0.00,,,0.07,,2013-01-12 04:52:00,
2013-01-11 21:32:00,20.0,17.0,-100.00,WSW,248,0.0,12.0,88,0.00,,,0.06,,2013-01-12 05:32:00,
2013-01-11 21:42:00,20.0,17.0,-100.00,WSW,248,0.0,12.0,88,0.00,,,0.06,,2013-01-12 05:42:00,
2013-01-11 21:52:00,20.0,17.0,-100.00,WSW,248,0.0,12.0,88,0.00,,,0.06,,2013-01-12 05:52:00,
2013-01-11 22:02:00,20.0,17.0,-100.00,WSW,248,0.0,12.0,88,0.00,,,0.06,,2013-01-12 06:02:00,
2013-01-11 22:33:00,22.0,19.0,-100.00,West,260,0.0,10.0,89,0.00,,,0.06,,2013-01-12 06:33:00,
2013-01-11 22:43:00,22.0,19.0,-100.00,West,260,0.0,10.0,89,0.00,,,0.06,,2013-01-12 06:43:00,
2013-01-11 22:52:00,22.0,19.0,-100.00,West,260,0.0,10.0,89,0.00,,,0.06,,2013-01-12 06:52:00,
2013-01-11 23:02:00,22.0,19.0,-100.00,West,260,0.0,10.0,89,0.00,,,0.06,,2013-01-12 07:02:00,
2013-01-11 23:32:00,22.0,18.0,-100.00,SE,125,0.0,4.0,86,0.00,,,0.06,,2013-01-12 07:32:00,
2013-01-11 23:42:00,22.0,18.0,-100.00,SE,125,0.0,4.0,86,0.00,,,0.06,,2013-01-12 07:42:00,
2013-01-11 23:52:00,22.0,18.0,-100.00,SE,125,0.0,4.0,86,0.00,,,0.06,,2013-01-12 07:52:00,